Location: STAR School
(35.3054°N, 111.2976°W)
Time: 22:19:15
(UTC-07:00)

Vanguard 1 - Pass Details

Date: 25 October 2019
Orbit: 652 x 3831 km, 34.2° (Epoch: 11 November)

Event Time Altitude Azimuth Distance (km) Brightness Sun altitude
Rises 19:36:34 0° 268° (W) 3,700 14.4 -24.8°
Reaches altitude 10° 19:38:40 10° 267° (W) 2,978 13.6 -25.2°
Maximum altitude 19:46:05 85° 180° (S) 1,635 11.0 -26.8°
Enters shadow 19:50:35 45° 96° (E) 2,532 11.6 -27.7°
